Date,TemperatureHighF,TemperatureAvgF,TemperatureLowF,DewpointHighF,DewpointAvgF,DewpointLowF,HumidityHigh,HumidityAvg,HumidityLow,PressureMaxIn,PressureMinIn,WindSpeedMaxMPH,WindSpeedAvgMPH,GustSpeedMaxMPH,PrecipitationSumIn
2013-1-1,24,11,4,-100,-100,-100,0,0,100,0.00,40.00,0,-999,0,0.00
2013-1-2,19,10,4,-100,-100,-100,0,0,100,0.00,40.00,0,-999,0,0.00
2013-1-3,27,13,4,-100,-100,-100,0,0,100,0.00,40.00,0,-999,0,0.00
2013-1-4,27,14,6,-100,-100,-100,0,0,100,0.00,40.00,0,-999,0,0.01
2013-1-5,29,18,11,-100,-100,-100,0,0,100,0.00,40.00,0,-999,0,0.01
2013-1-6,29,20,12,-100,-100,-100,0,0,100,0.00,40.00,0,-999,0,0.01
2013-1-7,26,20,12,-100,-100,-100,0,0,100,0.00,40.00,0,-999,0,0.01
2013-1-8,34,30,26,-100,-100,-100,0,0,100,0.00,40.00,0,-999,0,0.02
2013-1-9,36,33,31,-100,-100,-100,0,0,100,0.00,40.00,0,-999,0,0.02
2013-1-10,28,20,16,-100,-100,-100,0,0,100,0.00,40.00,0,-999,0,0.04
2013-1-11,19,13,4,-100,-100,-100,0,0,100,0.00,40.00,0,-999,0,0.01
2013-1-12,17,-1,-12,-100,-100,-100,0,0,100,0.00,40.00,0,-999,0,0.00
2013-1-13,15,-1,-10,-100,-100,-100,0,0,100,0.00,40.00,0,-999,0,0.00
2013-1-14,17,8,-5,-100,-100,-100,0,0,100,0.00,40.00,0,-999,0,0.01
2013-1-15,30,21,13,-100,-100,-100,0,0,100,0.00,40.00,0,-999,0,0.01
2013-1-16,27,17,10,-100,-100,-100,0,0,100,0.00,40.00,0,-999,0,0.00
2013-1-17,28,15,9,-100,-100,-100,0,0,100,0.00,40.00,0,-999,0,0.00
2013-1-18,30,18,10,-100,-100,-100,0,0,100,0.00,40.00,0,-999,0,0.00
2013-1-19,31,17,11,-100,-100,-100,0,0,100,0.00,40.00,0,-999,0,0.00
2013-1-20,37,20,10,-100,-100,-100,0,0,100,0.00,40.00,0,-999,0,0.00
2013-1-21,35,22,15,-100,-100,-100,0,0,100,0.00,40.00,0,-999,0,0.00
2013-1-22,41,23,11,-100,-100,-100,0,0,100,0.00,40.00,0,-999,0,0.00
2013-1-23,41,29,20,-100,-100,-100,0,0,100,0.00,40.00,0,-999,0,0.01
2013-1-24,35,32,30,-100,-100,-100,0,0,100,0.00,40.00,0,-999,0,0.02
2013-1-25,36,34,33,-100,-100,-100,0,0,100,0.00,40.00,0,-999,0,0.02
2013-1-26,35,32,25,-100,-100,-100,0,0,100,0.00,40.00,0,-999,0,0.02
2013-1-27,28,19,11,-100,-100,-100,0,0,100,0.00,40.00,0,-999,0,0.01
2013-1-28,26,17,4,-100,-100,-100,0,0,100,0.00,40.00,0,-999,0,0.00
2013-1-29,33,25,21,-100,-100,-100,0,0,100,0.00,40.00,0,-999,0,0.01
2013-1-30,38,30,26,-100,-100,-100,0,0,100,0.00,40.00,0,-999,0,0.01
2013-1-31,37,32,26,-100,-100,-100,0,0,100,0.00,40.00,0,-999,0,0.01
2013-2-1,37,28,16,-100,-100,-100,0,0,100,0.00,40.00,0,-999,0,0.00
2013-2-2,39,23,13,-100,-100,-100,0,0,100,0.00,40.00,0,-999,0,0.00
2013-2-3,35,26,19,-100,-100,-100,0,0,100,0.00,40.00,0,-999,0,0.00
2013-2-4,39,31,26,-100,-100,-100,0,0,100,0.00,40.00,0,-999,0,0.00
2013-2-5,40,31,26,-100,-100,-100,0,0,100,0.00,40.00,0,-999,0,0.00
2013-2-6,35,25,17,-100,-100,-100,0,0,100,0.00,40.00,0,-999,0,0.00
2013-2-7,36,28,18,-100,-100,-100,0,0,100,0.00,40.00,0,-999,0,0.01
2013-2-8,31,22,14,-100,-100,-100,0,0,100,0.00,40.00,0,-999,0,0.00
2013-2-9,31,23,18,-100,-100,-100,0,0,100,0.00,40.00,0,-999,0,0.00
2013-2-10,33,21,11,-100,-100,-100,0,0,100,0.00,40.00,0,-999,0,0.00
2013-2-11,36,17,4,-100,-100,-100,0,0,100,0.00,40.00,0,-999,0,0.00
2013-2-12,38,26,12,-100,-100,-100,0,0,100,0.00,40.00,0,-999,0,0.00
2013-2-13,42,30,24,-100,-100,-100,0,0,100,0.00,40.00,0,-999,0,0.00
2013-2-14,42,28,15,-100,-100,-100,0,0,100,0.00,40.00,0,-999,0,0.00
2013-2-15,49,30,16,-100,-100,-100,0,0,100,0.00,40.00,0,-999,0,0.00
2013-2-16,45,32,24,-100,-100,-100,0,0,100,0.00,40.00,0,-999,0,0.00
2013-2-17,33,23,10,-100,-100,-100,0,0,100,0.00,40.00,0,-999,0,0.01
2013-2-18,36,20,6,-100,-100,-100,0,0,100,0.00,40.00,0,-999,0,0.00
2013-2-19,31,24,13,-100,-100,-100,0,0,100,0.00,40.00,0,-999,0,0.01
2013-2-20,34,22,11,-100,-100,-100,0,0,100,0.00,40.00,0,-999,0,0.01
2013-2-21,33,17,1,-100,-100,-100,0,0,100,0.00,40.00,0,-999,0,0.00
2013-2-22,28,25,21,-100,-100,-100,0,0,100,0.00,40.00,0,-999,0,0.01
2013-2-23,31,23,13,-100,-100,-100,0,0,100,0.00,40.00,0,-999,0,0.03
2013-2-24,39,22,4,-100,-100,-100,0,0,100,0.00,40.00,0,-999,0,0.01
2013-2-25,36,23,15,-100,-100,-100,0,0,100,0.00,40.00,0,-999,0,0.01
2013-2-26,33,15,4,-100,-100,-100,0,0,100,0.00,40.00,0,-999,0,0.01
2013-2-27,38,21,8,-100,-100,-100,0,0,100,0.00,40.00,0,-999,0,0.01
2013-2-28,34,29,19,-100,-100,-100,0,0,100,0.00,40.00,0,-999,0,0.01
2013-3-1,43,35,29,-100,-100,-100,0,0,100,0.00,40.00,0,-999,0,0.01
2013-3-2,48,36,27,-100,-100,-100,0,0,100,0.00,40.00,0,-999,0,0.00
2013-3-3,40,30,12,-100,-100,-100,0,0,100,0.00,40.00,0,-999,0,0.00
2013-3-4,40,20,4,-100,-100,-100,0,0,100,0.00,40.00,0,-999,0,0.00
2013-3-5,45,30,12,-100,-100,-100,0,0,100,0.00,40.00,0,-999,0,0.01
2013-3-6,38,31,27,-100,-100,-100,0,0,100,0.00,40.00,0,-999,0,0.02
2013-3-7,43,27,14,-100,-100,-100,0,0,100,0.00,40.00,0,-999,0,0.01
2013-3-8,47,26,11,-100,-100,-100,0,0,100,0.00,40.00,0,-999,0,0.01
2013-3-9,47,29,18,-100,-100,-100,0,0,100,0.00,40.00,0,-999,0,0.00
2013-3-10,49,31,15,-100,-100,-100,0,0,100,0.00,40.00,0,-999,0,0.00
2013-3-11,45,37,31,-100,-100,-100,0,0,100,0.00,40.00,0,-999,0,0.00
2013-3-12,47,36,27,-100,-100,-100,0,0,100,0.00,40.00,0,-999,0,0.00
2013-3-13,53,42,35,-100,-100,-100,0,0,100,0.00,40.00,0,-999,0,0.00
2013-3-14,58,42,31,-100,-100,-100,0,0,100,0.00,40.00,0,-999,0,0.00
2013-3-15,54,42,32,-100,-100,-100,0,0,100,0.00,40.00,0,-999,0,0.00
2013-3-16,48,33,22,-100,-100,-100,0,0,100,0.00,40.00,0,-999,0,0.00
2013-3-17,36,25,15,-100,-100,-100,0,0,100,0.00,40.00,0,-999,0,0.01
2013-3-18,38,26,13,-100,-100,-100,0,0,100,0.00,40.00,0,-999,0,0.01
2013-3-19,47,30,7,-100,-100,-100,0,0,100,0.00,40.00,0,-999,0,0.00
2013-3-20,41,36,29,-100,-100,-100,0,0,100,0.00,40.00,0,-999,0,0.04
2013-3-21,30,24,16,-100,-100,-100,0,0,100,0.00,40.00,0,-999,0,0.02
2013-3-22,36,22,10,-100,-100,-100,0,0,100,0.00,40.00,0,-999,0,0.01
2013-3-23,36,17,2,-100,-100,-100,0,0,100,0.00,40.00,0,-999,0,0.00
2013-3-24,39,18,2,-100,-100,-100,0,0,100,0.00,40.00,0,-999,0,0.00
2013-3-25,46,29,12,-100,-100,-100,0,0,100,0.00,40.00,0,-999,0,0.01
2013-3-26,50,36,26,-100,-100,-100,0,0,100,0.00,40.00,0,-999,0,0.00
2013-3-27,51,37,24,-100,-100,-100,0,0,100,0.00,40.00,0,-999,0,0.00
2013-3-28,55,39,29,-100,-100,-100,0,0,100,0.00,40.00,0,-999,0,0.01
2013-3-29,55,40,31,-100,-100,-100,0,0,100,0.00,40.00,0,-999,0,0.01
2013-3-30,61,40,27,-100,-100,-100,0,0,100,0.00,40.00,0,-999,0,0.01
2013-3-31,68,40,24,-100,-100,-100,0,0,100,0.00,40.00,0,-999,0,0.00
2013-4-1,61,42,27,-100,-100,-100,0,0,100,0.00,40.00,0,-999,0,0.01
2013-4-2,63,42,29,-100,-100,-100,0,0,100,0.00,40.00,0,-999,0,0.01
2013-4-3,60,42,30,-100,-100,-100,0,0,100,0.00,40.00,0,-999,0,0.01
2013-4-4,56,41,33,-100,-100,-100,0,0,100,0.00,40.00,0,-999,0,0.01
2013-4-5,48,38,32,-100,-100,-100,0,0,100,0.00,40.00,0,-999,0,0.00
2013-4-6,46,37,34,-100,-100,-100,0,0,100,0.00,40.00,0,-999,0,0.02
2013-4-7,41,34,30,-100,-100,-100,0,0,100,0.00,40.00,0,-999,0,0.07
2013-4-8,41,30,23,-100,-100,-100,0,0,100,0.00,40.00,0,-999,0,0.02
2013-4-9,51,31,21,-100,-100,-100,0,0,100,0.00,40.00,0,-999,0,0.01
2013-4-10,51,36,25,-100,-100,-100,0,0,100,0.00,40.00,0,-999,0,0.01
2013-4-11,51,36,24,-100,-100,-100,0,0,100,0.00,40.00,0,-999,0,0.01
2013-4-12,53,35,20,-100,-100,-100,0,0,100,0.00,40.00,0,-999,0,0.01
2013-4-13,44,34,23,-100,-100,-100,0,0,100,0.00,40.00,0,-999,0,0.01
2013-4-14,40,25,15,-100,-100,-100,0,0,100,0.00,40.00,0,-999,0,0.01
2013-4-15,40,27,20,-100,-100,-100,0,0,100,0.00,40.00,0,-999,0,0.01
2013-4-16,42,27,18,-100,-100,-100,0,0,100,0.00,40.00,0,-999,0,0.01
2013-4-17,45,28,14,-100,-100,-100,0,0,100,0.00,40.00,0,-999,0,0.01
2013-4-18,51,29,14,-100,-100,-100,0,0,100,0.00,40.00,0,-999,0,0.01
2013-4-19,43,36,32,-100,-100,-100,0,0,100,0.00,40.00,0,-999,0,0.01
2013-4-20,47,37,29,-100,-100,-100,0,0,100,0.00,40.00,0,-999,0,0.02
2013-4-21,50,37,29,-100,-100,-100,0,0,100,0.00,40.00,0,-999,0,0.01
2013-4-22,48,33,24,-100,-100,-100,0,0,100,0.00,40.00,0,-999,0,0.00
2013-4-23,49,31,15,-100,-100,-100,0,0,100,0.00,40.00,0,-999,0,0.01
2013-4-24,57,47,29,-100,-100,-100,0,0,100,0.00,40.00,0,-999,0,0.00
2013-4-25,62,44,27,-100,-100,-100,0,0,100,0.00,40.00,0,-999,0,0.00
2013-4-26,66,47,29,-100,-100,-100,0,0,100,0.00,40.00,0,-999,0,0.00
2013-4-27,64,47,31,-100,-100,-100,0,0,100,0.00,40.00,0,-999,0,0.00
2013-4-28,58,44,36,-100,-100,-100,0,0,100,0.00,40.00,0,-999,0,0.00
2013-4-29,44,40,28,-100,-100,-100,0,0,100,0.00,40.00,0,-999,0,0.02
2013-4-30,41,28,19,-100,-100,-100,0,0,100,0.00,40.00,0,-999,0,0.01
2013-5-1,52,37,19,-100,-100,-100,0,0,100,0.00,40.00,0,-999,0,0.02
2013-5-2,60,39,22,-100,-100,-100,0,0,100,0.00,40.00,0,-999,0,0.01
2013-5-3,62,45,31,-100,-100,-100,0,0,100,0.00,40.00,0,-999,0,0.01
2013-5-4,60,44,33,-100,-100,-100,0,0,100,0.00,40.00,0,-999,0,0.01
2013-5-5,66,46,32,-100,-100,-100,0,0,100,0.00,40.00,0,-999,0,0.01
2013-5-6,72,52,34,-100,-100,-100,0,0,100,0.00,40.00,0,-999,0,0.00
2013-5-7,70,49,34,-100,-100,-100,0,0,100,0.00,40.00,0,-999,0,0.00
2013-5-8,73,55,37,-100,-100,-100,0,0,100,0.00,40.00,0,-999,0,0.00
2013-5-9,74,53,37,-100,-100,-100,0,0,100,0.00,40.00,0,-999,0,0.00
2013-5-10,76,52,37,-100,-100,-100,0,0,100,0.00,40.00,0,-999,0,0.00
2013-5-11,76,55,40,-100,-100,-100,0,0,100,0.00,40.00,0,-999,0,0.00
2013-5-12,76,56,43,-100,-100,-100,0,0,100,0.00,40.00,0,-999,0,0.00
2013-5-13,71,56,43,-100,-100,-100,0,0,100,0.00,40.00,0,-999,0,0.00
2013-5-14,65,49,33,-100,-100,-100,0,0,100,0.00,40.00,0,-999,0,0.00
2013-5-15,65,49,35,-100,-100,-100,0,0,100,0.00,40.00,0,-999,0,0.01
2013-5-16,56,47,38,-100,-100,-100,0,0,100,0.00,40.00,0,-999,0,0.01
2013-5-17,52,42,38,-100,-100,-100,0,0,100,0.00,40.00,0,-999,0,0.02
2013-5-18,55,43,35,-100,-100,-100,0,0,100,0.00,40.00,0,-999,0,0.02
2013-5-19,52,42,36,-100,-100,-100,0,0,100,0.00,40.00,0,-999,0,0.00
2013-5-20,65,50,33,-100,-100,-100,0,0,100,0.00,40.00,0,-999,0,0.00
2013-5-21,63,48,36,-100,-100,-100,0,0,100,0.00,40.00,0,-999,0,0.01
2013-5-22,43,36,27,-100,-100,-100,0,0,100,0.00,40.00,0,-999,0,0.01
2013-5-23,54,39,23,-100,-100,-100,0,0,100,0.00,40.00,0,-999,0,0.00
2013-5-24,52,39,28,-100,-100,-100,0,0,100,0.00,40.00,0,-999,0,0.00
2013-5-25,61,45,37,-100,-100,-100,0,0,100,0.00,40.00,0,-999,0,0.00
2013-5-26,58,44,36,-100,-100,-100,0,0,100,0.00,40.00,0,-999,0,0.01
2013-5-27,51,43,34,-100,-100,-100,0,0,100,0.00,40.00,0,-999,0,0.01
2013-5-28,49,41,36,-100,-100,-100,0,0,100,0.00,40.00,0,-999,0,0.03
2013-5-29,49,40,32,-100,-100,-100,0,0,100,0.00,40.00,0,-999,0,0.01
2013-5-30,53,40,34,-100,-100,-100,0,0,100,0.00,40.00,0,-999,0,0.01
2013-5-31,62,44,30,-100,-100,-100,0,0,100,0.00,40.00,0,-999,0,0.00
2013-6-1,66,50,32,-100,-100,-100,0,0,100,0.00,40.00,0,-999,0,0.00
2013-6-2,62,50,39,-100,-100,-100,0,0,100,0.00,40.00,0,-999,0,0.00
2013-6-3,63,47,32,-100,-100,-100,0,0,100,0.00,40.00,0,-999,0,0.00
2013-6-4,71,53,35,-100,-100,-100,0,0,100,0.00,40.00,0,-999,0,0.00
2013-6-5,73,56,37,-100,-100,-100,0,0,100,0.00,40.00,0,-999,0,0.00
2013-6-6,78,60,43,-100,-100,-100,0,0,100,0.00,40.00,0,-999,0,0.00
2013-6-7,77,58,45,-100,-100,-100,0,0,100,0.00,40.00,0,-999,0,0.00
2013-6-8,76,58,40,-100,-100,-100,0,0,100,0.00,40.00,0,-999,0,0.00
2013-6-9,77,60,42,-100,-100,-100,0,0,100,0.00,40.00,0,-999,0,0.00
2013-6-10,80,61,42,-100,-100,-100,0,0,100,0.00,40.00,0,-999,0,0.00
2013-6-11,71,59,45,-100,-100,-100,0,0,100,0.00,40.00,0,-999,0,0.00
2013-6-12,68,55,38,-100,-100,-100,0,0,100,0.00,40.00,0,-999,0,0.00
2013-6-13,62,48,38,-100,-100,-100,0,0,100,0.00,40.00,0,-999,0,0.01
2013-6-14,61,44,36,-100,-100,-100,0,0,100,0.00,40.00,0,-999,0,0.00
2013-6-15,72,51,29,-100,-100,-100,0,0,100,0.00,40.00,0,-999,0,0.00
2013-6-16,82,60,39,-100,-100,-100,0,0,100,0.00,40.00,0,-999,0,0.00
2013-6-17,79,63,42,-100,-100,-100,0,0,100,0.00,40.00,0,-999,0,0.00
2013-6-18,74,60,44,-100,-100,-100,0,0,100,0.00,40.00,0,-999,0,0.00
2013-6-19,49,43,36,-100,-100,-100,0,0,100,0.00,40.00,0,-999,0,0.04
2013-6-20,46,38,34,-100,-100,-100,0,0,100,0.00,40.00,0,-999,0,0.01
2013-6-22,61,51,39,-100,-100,-100,0,0,100,0.00,40.00,0,-999,0,0.01
2013-6-23,67,52,35,-100,-100,-100,0,0,100,0.00,40.00,0,-999,0,0.00
2013-6-24,53,49,46,-100,-100,-100,0,0,100,0.00,40.00,0,-999,0,0.04
2013-6-25,51,48,46,-100,-100,-100,0,0,100,0.00,40.00,0,-999,0,0.03
2013-6-26,63,53,47,-100,-100,-100,0,0,100,0.00,40.00,0,-999,0,0.03
2013-6-27,79,60,44,-100,-100,-100,0,0,100,0.00,40.00,0,-999,0,0.01
2013-6-28,88,68,47,-100,-100,-100,0,0,100,0.00,40.00,0,-999,0,0.00
2013-6-29,88,72,57,-100,-100,-100,0,0,100,0.00,40.00,0,-999,0,0.00
2013-6-30,93,73,54,-100,-100,-100,0,0,100,0.00,40.00,0,-999,0,0.00
2013-7-1,95,73,55,-100,-100,-100,0,0,100,0.00,40.00,0,-999,0,0.00
2013-7-2,94,74,57,-100,-100,-100,0,0,100,0.00,40.00,0,-999,0,0.00
2013-7-3,88,72,58,-100,-100,-100,0,0,100,0.00,40.00,0,-999,0,0.00
2013-7-4,82,65,50,-100,-100,-100,0,0,100,0.00,40.00,0,-999,0,0.00
2013-7-5,78,63,44,-100,-100,-100,0,0,100,0.00,40.00,0,-999,0,0.00
2013-7-6,80,56,41,-100,-100,-100,0,0,100,0.00,40.00,0,-999,0,0.00
2013-7-7,83,63,44,-100,-100,-100,0,0,100,0.00,40.00,0,-999,0,0.00
2013-7-8,81,58,46,-100,-100,-100,0,0,100,0.00,40.00,0,-999,0,0.00
2013-7-9,85,61,44,-100,-100,-100,0,0,100,0.00,40.00,0,-999,0,0.00
2013-7-10,87,68,48,-100,-100,-100,0,0,100,0.00,40.00,0,-999,0,0.00
2013-7-11,74,59,47,-100,-100,-100,0,0,100,0.00,40.00,0,-999,0,0.01
2013-7-12,78,59,43,-100,-100,-100,0,0,100,0.00,40.00,0,-999,0,0.00
2013-7-13,76,60,40,-100,-100,-100,0,0,100,0.00,40.00,0,-999,0,0.00
2013-7-14,82,62,43,-100,-100,-100,0,0,100,0.00,40.00,0,-999,0,0.00
2013-7-15,89,59,45,-100,-100,-100,0,0,100,0.00,40.00,0,-999,0,0.00
2013-7-16,90,67,53,-100,-100,-100,0,0,100,0.00,40.00,0,-999,0,0.00
2013-7-17,86,68,54,-100,-100,-100,0,0,100,0.00,40.00,0,-999,0,0.00
2013-7-18,88,70,49,-100,-100,-100,0,0,100,0.00,40.00,0,-999,0,0.00
2013-7-19,90,65,48,-100,-100,-100,0,0,100,0.00,40.00,0,-999,0,0.00
2013-7-20,89,66,48,-100,-100,-100,0,0,100,0.00,40.00,0,-999,0,0.00
2013-7-21,89,65,45,-100,-100,-100,0,0,100,0.00,40.00,0,-999,0,0.00
2013-7-22,87,60,42,-100,-100,-100,0,0,100,0.00,40.00,0,-999,0,0.00
2013-7-23,92,67,43,-100,-100,-100,0,0,100,0.00,40.00,0,-999,0,0.00
2013-7-24,89,67,53,-100,-100,-100,0,0,100,0.00,40.00,0,-999,0,0.01
2013-7-25,88,68,49,-100,-100,-100,0,0,100,0.00,40.00,0,-999,0,0.00
2013-7-26,87,64,49,-100,-100,-100,0,0,100,0.00,40.00,0,-999,0,0.00
2013-7-27,84,65,50,-100,-100,-100,0,0,100,0.00,40.00,0,-999,0,0.00
2013-7-28,82,60,43,-100,-100,-100,0,0,100,0.00,40.00,0,-999,0,0.00
2013-7-29,78,57,40,-100,-100,-100,0,0,100,0.00,40.00,0,-999,0,0.02
2013-7-30,83,64,47,-100,-100,-100,0,0,100,0.00,40.00,0,-999,0,0.01
2013-7-31,80,63,49,-100,-100,-100,0,0,100,0.00,40.00,0,-999,0,0.01
2013-8-1,77,58,45,-100,-100,-100,0,0,100,0.00,40.00,0,-999,0,0.01
2013-8-2,72,54,38,-100,-100,-100,0,0,100,0.00,40.00,0,-999,0,0.01
2013-8-3,78,56,38,-100,-100,-100,0,0,100,0.00,40.00,0,-999,0,0.00
2013-8-4,83,62,40,-100,-100,-100,0,0,100,0.00,40.00,0,-999,0,0.00
2013-8-5,86,63,46,-100,-100,-100,0,0,100,0.00,40.00,0,-999,0,0.00
2013-8-6,87,65,44,-100,-100,-100,0,0,100,0.00,40.00,0,-999,0,1.69
2013-8-7,89,65,45,-100,-100,-100,0,0,100,0.00,40.00,0,-999,0,1.70
2013-8-8,87,63,51,-100,-100,-100,0,0,100,0.00,40.00,0,-999,0,0.01
2013-8-9,83,64,50,-100,-100,-100,0,0,100,0.00,40.00,0,-999,0,0.01
2013-8-10,81,65,50,-100,-100,-100,0,0,100,0.00,40.00,0,-999,0,0.01
2013-8-11,84,61,49,-100,-100,-100,0,0,100,0.00,40.00,0,-999,0,0.00
2013-8-25,78,63,49,-100,-100,-100,0,0,100,0.00,40.00,0,-999,0,0.00
2013-8-26,75,58,44,-100,-100,-100,0,0,100,0.00,40.00,0,-999,0,0.00
2013-8-27,79,54,45,-100,-100,-100,0,0,100,0.00,40.00,0,-999,0,0.00
2013-8-28,76,74,72,-100,-100,-100,0,0,100,0.00,40.00,0,-999,0,0.00
2013-8-29,82,62,51,-100,-100,-100,0,0,100,0.00,40.00,0,-999,0,0.00
2013-8-30,80,63,46,-100,-100,-100,0,0,100,0.00,40.00,0,-999,0,0.00
2013-8-31,85,60,44,-100,-100,-100,0,0,100,0.00,40.00,0,-999,0,0.00
2013-9-1,84,61,48,-100,-100,-100,0,0,100,0.00,40.00,0,-999,0,0.00
2013-9-2,71,60,53,-100,-100,-100,0,0,100,0.00,40.00,0,-999,0,0.01
2013-9-3,76,58,51,-100,-100,-100,0,0,100,0.00,40.00,0,-999,0,0.00
2013-9-4,77,62,51,-100,-100,-100,0,0,100,0.00,40.00,0,-999,0,0.00
2013-9-5,70,57,51,-100,-100,-100,0,0,100,0.00,40.00,0,-999,0,0.02
2013-9-6,68,53,42,-100,-100,-100,0,0,100,0.00,40.00,0,-999,0,0.01
2013-9-8,73,55,41,-100,-100,-100,0,0,100,0.00,40.00,0,-999,0,0.00
2013-9-9,71,54,39,-100,-100,-100,0,0,100,0.00,40.00,0,-999,0,0.00
2013-9-10,79,59,41,-100,-100,-100,0,0,100,0.00,40.00,0,-999,0,0.00
2013-9-11,85,66,44,-100,-100,-100,0,0,100,0.00,40.00,0,-999,0,0.00
2013-9-12,73,59,50,-100,-100,-100,0,0,100,0.00,40.00,0,-999,0,0.01
2013-9-13,66,57,51,-100,-100,-100,0,0,100,0.00,40.00,0,-999,0,0.01
2013-9-14,71,57,48,-100,-100,-100,0,0,100,0.00,40.00,0,-999,0,0.01
2013-9-15,78,63,52,-100,-100,-100,0,0,100,0.00,40.00,0,-999,0,0.00
2013-9-16,70,54,43,-100,-100,-100,0,0,100,0.00,40.00,0,-999,0,0.01
2013-9-17,63,48,41,-100,-100,-100,0,0,100,0.00,40.00,0,-999,0,0.01
2013-9-18,42,39,33,-100,-100,-100,0,0,100,0.00,40.00,0,-999,0,0.01
2013-9-19,63,41,30,-100,-100,-100,0,0,100,0.00,40.00,0,-999,0,0.00
2013-9-20,74,54,34,-100,-100,-100,0,0,100,0.00,40.00,0,-999,0,0.00
2013-9-21,58,52,44,-100,-100,-100,0,0,100,0.00,40.00,0,-999,0,0.00
2013-9-22,56,46,41,-100,-100,-100,0,0,100,0.00,40.00,0,-999,0,0.00
2013-9-23,53,44,36,-100,-100,-100,0,0,100,0.00,40.00,0,-999,0,0.01
2013-9-24,46,41,38,-100,-100,-100,0,0,100,0.00,40.00,0,-999,0,0.03
2013-9-25,41,37,34,-100,-100,-100,0,0,100,0.00,40.00,0,-999,0,0.01
2013-9-26,43,37,33,-100,-100,-100,0,0,100,0.00,40.00,0,-999,0,0.01
2013-9-27,46,37,32,-100,-100,-100,0,0,100,0.00,40.00,0,-999,0,0.00
2013-9-28,43,39,34,-100,-100,-100,0,0,100,0.00,40.00,0,-999,0,0.02
2013-9-29,45,40,34,-100,-100,-100,0,0,100,0.00,40.00,0,-999,0,0.07
2013-9-30,45,40,33,-100,-100,-100,0,0,100,0.00,40.00,0,-999,0,0.08
2013-10-1,43,39,35,-100,-100,-100,0,0,100,0.00,40.00,0,-999,0,0.00
2013-10-2,47,34,24,-100,-100,-100,0,0,100,0.00,40.00,0,-999,0,0.00
2013-10-3,39,35,31,-100,-100,-100,0,0,100,0.00,40.00,0,-999,0,0.01
2013-10-4,53,40,28,-100,-100,-100,0,0,100,0.00,40.00,0,-999,0,0.00
2013-10-5,56,40,26,-100,-100,-100,0,0,100,0.00,40.00,0,-999,0,0.00
2013-10-6,66,41,30,-100,-100,-100,0,0,100,0.00,40.00,0,-999,0,0.00
2013-10-7,56,44,35,-100,-100,-100,0,0,100,0.00,40.00,0,-999,0,0.00
2013-10-8,42,33,28,-100,-100,-100,0,0,100,0.00,40.00,0,-999,0,0.00
2013-10-9,51,33,29,-100,-100,-100,0,0,100,0.00,40.00,0,-999,0,0.01
2013-10-10,48,37,29,-100,-100,-100,0,0,100,0.00,40.00,0,-999,0,0.00
2013-10-11,49,36,27,-100,-100,-100,0,0,100,0.00,40.00,0,-999,0,0.00
2013-10-12,42,35,31,-100,-100,-100,0,0,100,0.00,40.00,0,-999,0,0.00
2013-10-13,48,41,31,-100,-100,-100,0,0,100,0.00,40.00,0,-999,0,0.00
2013-10-21,38,37,36,-100,-100,-100,0,0,100,0.00,40.00,0,-999,0,0.00
2013-10-22,58,41,32,-100,-100,-100,0,0,100,0.00,40.00,0,-999,0,0.00
2013-10-23,31,31,31,-100,-100,-100,0,0,100,0.00,40.00,0,-999,0,0.00
2013-10-24,55,49,43,-100,-100,-100,0,0,100,0.00,40.00,0,-999,0,0.00
2013-10-25,38,33,31,-100,-100,-100,0,0,100,0.00,40.00,0,-999,0,0.00
2013-10-26,53,38,30,-100,-100,-100,0,0,100,0.00,40.00,0,-999,0,0.00
2013-10-27,38,38,38,-100,-100,-100,0,0,100,0.00,40.00,0,-999,0,0.00
2013-11-12,51,42,36,-100,-100,-100,0,0,100,0.00,40.00,0,-999,0,0.00
2013-11-13,40,40,39,-100,-100,-100,0,0,100,0.00,40.00,0,-999,0,0.00
2013-11-14,37,32,29,-100,-100,-100,0,0,100,0.00,40.00,0,-999,0,0.00
2013-11-15,32,30,29,-100,-100,-100,0,0,100,0.00,40.00,0,-999,0,0.00
2013-11-16,27,26,25,-100,-100,-100,0,0,100,0.00,40.00,0,-999,0,0.00
2013-11-17,34,34,34,-100,-100,-100,0,0,100,0.00,40.00,0,-999,0,0.00
2013-11-18,40,31,26,-100,-100,-100,0,0,100,0.00,40.00,0,-999,0,0.00
2013-11-19,36,34,33,-100,-100,-100,0,0,100,0.00,40.00,0,-999,0,0.04
2013-11-20,35,26,12,-100,-100,-100,0,0,100,0.00,40.00,0,-999,0,0.01
2013-11-21,29,20,11,-100,-100,-100,0,0,100,0.00,40.00,0,-999,0,0.00
2013-11-22,32,21,10,-100,-100,-100,0,0,100,0.00,40.00,0,-999,0,0.00
2013-11-23,43,27,15,-100,-100,-100,0,0,100,0.00,40.00,0,-999,0,0.00
2013-11-24,46,30,19,-100,-100,-100,0,0,100,0.00,40.00,0,-999,0,0.00
2013-11-25,49,31,25,-100,-100,-100,0,0,100,0.00,40.00,0,-999,0,0.00
2013-11-26,46,32,25,-100,-100,-100,0,0,100,0.00,40.00,0,-999,0,0.00
2013-11-27,43,31,26,-100,-100,-100,0,0,100,0.00,40.00,0,-999,0,0.00
2013-11-28,43,30,23,-100,-100,-100,0,0,100,0.00,40.00,0,-999,0,0.00
2013-11-29,40,31,22,-100,-100,-100,0,0,100,0.00,40.00,0,-999,0,0.00
2013-11-30,34,33,31,-100,-100,-100,0,0,100,0.00,40.00,0,-999,0,0.00
2013-12-1,34,34,33,-100,-100,-100,0,0,100,0.00,40.00,0,-999,0,0.01
2013-12-2,34,27,19,-100,-100,-100,0,0,100,0.00,40.00,0,-999,0,0.04
2013-12-3,18,13,8,-100,-100,-100,0,0,100,0.00,40.00,0,-999,0,0.00
2013-12-4,12,5,-5,-100,-100,-100,0,0,100,0.00,40.00,0,-999,0,0.00
2013-12-11,23,18,5,-100,-100,-100,0,0,100,0.00,40.00,0,-999,0,0.00
2013-12-12,18,16,13,-100,-100,-100,0,0,100,0.00,40.00,0,-999,0,0.00
2013-12-13,33,29,22,-100,-100,-100,0,0,100,0.00,40.00,0,-999,0,0.01
2013-12-14,32,30,27,-100,-100,-100,0,0,100,0.00,40.00,0,-999,0,0.00
2013-12-15,31,28,25,-100,-100,-100,0,0,100,0.00,40.00,0,-999,0,0.00
2013-12-16,32,26,18,-100,-100,-100,0,0,100,0.00,40.00,0,-999,0,0.00
2013-12-17,28,23,19,-100,-100,-100,0,0,100,0.00,40.00,0,-999,0,0.00
2013-12-18,29,28,27,-100,-100,-100,0,0,100,0.00,40.00,0,-999,0,0.00
2013-12-19,22,16,7,-100,-100,-100,0,0,100,0.00,40.00,0,-999,0,0.00
2013-12-20,17,9,4,-100,-100,-100,0,0,100,0.00,40.00,0,-999,0,0.00
2013-12-21,27,24,18,-100,-100,-100,0,0,100,0.00,40.00,0,-999,0,0.01
2013-12-22,33,29,25,-100,-100,-100,0,0,100,0.00,40.00,0,-999,0,0.01
2013-12-23,34,32,30,-100,-100,-100,0,0,100,0.00,40.00,0,-999,0,0.00
2013-12-24,26,15,9,-100,-100,-100,0,0,100,0.00,40.00,0,-999,0,0.00
2013-12-25,29,17,8,-100,-100,-100,0,0,100,0.00,40.00,0,-999,0,0.00
2013-12-26,30,22,15,-100,-100,-100,0,0,100,0.00,40.00,0,-999,0,0.00
2013-12-27,21,20,20,-100,-100,-100,0,0,100,0.00,40.00,0,-999,0,0.00
2013-12-28,24,24,24,-100,-100,-100,0,0,100,0.00,40.00,0,-999,0,0.00
2013-12-29,10,10,9,-100,-100,-100,0,0,100,0.00,40.00,0,-999,0,0.00
2013-12-30,28,24,21,-100,-100,-100,0,0,100,0.00,40.00,0,-999,0,0.00
2013-12-31,30,28,27,-100,-100,-100,0,0,100,0.00,40.00,0,-999,0,0.00
2014-1-1,30,18,12,-100,-100,-100,0,0,100,0.00,40.00,0,-999,0,0.00
2014-1-2,34,26,21,-100,-100,-100,0,0,100,0.00,40.00,0,-999,0,0.00